This demonstration page uses our WeatherBlox Daily Observations layout. Learn more.

Left ArrowRight Arrow

40.97296, -117.73568

Hourly Observations for December 9, 2022

Temp ( °F °C ) Dew Point ( °F °C ) Humidity (%) Winds ( mph kmh ) Pressure ( in mb ) Visibility ( mi km ) Precip ( " mm )
12:56 am 00:56 Cloudy 36 2.2 24 -4.4 62 62 S 5 7 29.98 1015 10 16 0.00 0.00
1:56 am 01:56 Cloudy 38 3.3 24 -4.4 57 57 WSW 12 19 29.98 1015 10 16 0.01 0.13
2:46 am 02:46 Windy with Snow Likely 34 1.1 29 -1.7 82 82 SW 26 43 30.11 1020 2 3 0.01 0.13
2:56 am 02:56 Windy with Snow Likely 34 1.1 30 -1.1 85 85 WSW 20 31 30.02 1017 1 2 0.01 0.25
2:58 am 02:58 Cloudy with Light Snow 33 0.6 29 -1.7 85 85 WSW 14 22 30.12 1020 2 3 0.01 0.13
3:04 am 03:04 Cloudy with Light Snow 34 1.1 29 -1.7 82 82 WSW 17 28 30.10 1019 8 13 0.01 0.13
3:56 am 03:56 Cloudy 33 0.6 28 -2.2 81 81 WNW 12 19 30.05 1018 10 16 0.01 0.13
4:56 am 04:56 Cloudy 32 0 27 -2.8 81 81 W 10 17 30.08 1019 10 16 0.01 0.13
5:56 am 05:56 Cloudy 33 0.6 26 -3.3 75 75 WSW 9 15 30.09 1019 10 16 0.01 0.13
6:56 am 06:56 Mostly Cloudy 31 -0.6 25 -3.9 78 78 WNW 9 15 30.10 1019 10 16 0.00 0.00
7:56 am 07:56 Cloudy 32 0 24 -4.4 72 72 S 7 11 30.11 1020 10 16 0.00 0.00
8:56 am 08:56 Cloudy 35 1.7 20 -6.7 54 54 WSW 6 9 30.11 1020 10 16 0.00 0.00
9:56 am 09:56 Mostly Sunny 36 2.2 18 -7.8 47 47 WSW 3 6 30.13 1020 10 16 0.00 0.00
10:56 am 10:56 Mostly Cloudy 38 3.3 19 -7.2 46 46 Calm 30.11 1020 10 16 0.00 0.00
11:56 am 11:56 Mostly Sunny 40 4.4 22 -5.6 48 48 Calm 30.07 1018 10 16 0.00 0.00
12:56 pm 12:56 Sunny 39 3.9 23 -5 52 52 W 3 6 30.05 1018 10 16 0.00 0.00
1:56 pm 13:56 Cloudy 39 3.9 22 -5.6 50 50 SSW 5 7 30.03 1017 10 16 0.00 0.00
2:56 pm 14:56 Mostly Cloudy 40 4.4 24 -4.4 53 53 SSW 5 7 30.04 1017 10 16 0.00 0.00
3:56 pm 15:56 Cloudy 39 3.9 25 -3.9 57 57 ESE 3 6 30.04 1017 10 16 0.00 0.00
4:56 pm 16:56 Cloudy 37 2.8 25 -3.9 61 61 ENE 6 9 30.01 1016 10 16 0.00 0.00
5:56 pm 17:56 Cloudy 36 2.2 25 -3.9 64 64 ENE 6 9 29.99 1016 10 16 0.00 0.00
6:56 pm 18:56 Cloudy 36 2.2 26 -3.3 67 67 E 6 9 30.00 1016 10 16 0.00 0.00
7:56 pm 19:56 Cloudy 35 1.7 25 -3.9 66 66 Calm 29.97 1015 10 16 0.00 0.00
8:56 pm 20:56 Cloudy 33 0.6 25 -3.9 72 72 SE 6 9 29.96 1015 10 16 0.00 0.00
9:56 pm 21:56 Mostly Cloudy 33 0.6 26 -3.3 75 75 E 7 11 29.93 1014 10 16 0.00 0.00
10:56 pm 22:56 Mostly Cloudy 33 0.6 25 -3.9 72 72 ENE 5 7 29.91 1013 10 16 0.00 0.00
11:56 pm 23:56 Cloudy 38 3.3 25 -3.9 59 59 S 15 24 29.88 1012 10 16 0.00 0.00

Powered by AerisWeather